Home   Weather   Recklinghausen   Past weeks

Flag for Germany Past Weather in Recklinghausen, North Rhine-Westphalia, Germany — Yesterday and Last 2 Weeks

Now
50 °F

Partly cloudy.


Feels Like: 43 °F
Forecast: 36 / 44 °F
Wind: 21 mph from Southwest

Location: Duesseldorf

Current Time: Feb 23, 2017 at 1:36:31 am

Latest Report: Feb 23, 2017 at 1:20 am


Visibility: N/A

Pressure: 29.68 "Hg

Humidity: 88%

Dew Point: 46 °F

Location of RecklinghausenLocation

Past Weather in Recklinghausen — Graph

°F

Recklinghausen Temperature Yesterday

Maximum temperature yesterday: 52 °F (at 1:50 am)
Minimum temperature yesterday: 48 °F (at 8:20 am)
Average temperature yesterday: 50 °F

High & Low Weather Summary for the Past Weeks

 TemperatureHumidityPressure
High61 °F (Feb 15, 3:50 pm)100% (Feb 11, 7:50 pm)30.51 "Hg (Feb 11, 7:50 pm)
Low27 °F (Feb 13, 5:50 am)38% (Feb 14, 3:50 pm)29.68 "Hg (Feb 22, 4:20 pm)
Average42 °F79%30.21 "Hg
* Reported Feb 8 12:20 am — Feb 23 12:20 am, Recklinghausen, Weather by CustomWeather, © 2017

Note: Actual official high and low records may vary slightly from our data, if they occured in-between our weather recording intervals... More about our weather records

Advertising

Recklinghausen Weather History for the Previous 24 Hours

Scroll right to see more
 ConditionsComfort  
Time TempWeatherWind HumidityBarometerVisibility
12:20 am
Thu, Feb 23
50 °FPassing clouds.20 mph94%29.68 "HgN/A
11:50 pm
Wed, Feb 22
50 °FPassing clouds.14 mph94%29.68 "HgN/A
11:20 pm50 °FPartly cloudy.6 mph94%29.68 "HgN/A
10:50 pm48 °FPartly cloudy.3 mph100%29.71 "Hg5 mi
10:20 pm48 °FPartly cloudy.5 mph94%29.71 "Hg2 mi
9:50 pm48 °FPartly cloudy.6 mph100%29.71 "Hg4 mi
9:20 pm48 °FPartly cloudy.6 mph100%29.71 "Hg4 mi
8:50 pm50 °FPassing clouds.10 mph94%29.71 "Hg6 mi
8:20 pm50 °FPartly cloudy.16 mph94%29.71 "Hg5 mi
7:50 pm50 °FLight rain. Passing clouds.20 mph94%29.71 "HgN/A
7:20 pm50 °FLight rain. Passing clouds.20 mph94%29.71 "Hg6 mi
6:50 pm50 °FLight rain. Passing clouds.21 mph94%29.71 "HgN/A
6:20 pm50 °FLight rain. Passing clouds.23 mph94%29.71 "HgN/A
5:50 pm50 °FLight rain. Partly sunny.22 mph88%29.68 "HgN/A
5:20 pm50 °FLight rain. Partly sunny.23 mph94%29.68 "HgN/A
4:50 pm50 °FLight rain. Partly sunny.22 mph94%29.68 "HgN/A
4:20 pm50 °FLight rain. Partly sunny.24 mph94%29.68 "HgN/A
3:50 pm50 °FLight rain. Partly sunny.22 mph94%29.71 "HgN/A
3:20 pm50 °FLight rain. Partly sunny.21 mph94%29.71 "HgN/A
2:50 pm50 °FLight rain. Partly sunny.21 mph94%29.71 "HgN/A
2:20 pm50 °FLight rain. Partly sunny.23 mph94%29.71 "Hg5 mi
1:50 pm52 °FLight rain. Partly sunny.23 mph82%29.74 "HgN/A
1:20 pm52 °FPartly sunny.21 mph82%29.74 "HgN/A
12:50 pm52 °FLight rain. Partly sunny.24 mph82%29.74 "HgN/A
12:20 pm50 °FLight rain. Partly sunny.24 mph88%29.74 "HgN/A
11:50 am50 °FLight rain. Partly sunny.22 mph88%29.74 "HgN/A
11:20 am50 °FDrizzle. Partly sunny.22 mph88%29.74 "HgN/A
10:50 am50 °FDrizzle. Partly sunny.23 mph88%29.77 "HgN/A
10:20 am50 °FDrizzle. Partly sunny.21 mph88%29.74 "HgN/A
9:50 am50 °FDrizzle. Partly sunny.22 mph88%29.77 "HgN/A
9:20 am50 °FDrizzle. Partly sunny.22 mph88%29.77 "HgN/A
8:50 am50 °FDrizzle. Partly sunny.20 mph88%29.77 "HgN/A
8:20 am48 °FDrizzle. Partly sunny.18 mph94%29.77 "Hg4 mi
7:50 am50 °FDrizzle. Partly sunny.20 mph88%29.77 "Hg4 mi
7:20 am50 °FPassing clouds.23 mph88%29.74 "Hg4 mi
6:50 am50 °FPartly cloudy.22 mph82%29.74 "HgN/A
6:20 am52 °FLight rain. Passing clouds.24 mph77%29.77 "HgN/A
5:50 am52 °FPartly cloudy.26 mph77%29.77 "HgN/A
5:20 am52 °FPassing clouds.22 mph77%29.77 "HgN/A
4:50 am50 °FLight rain. Overcast.23 mph88%29.77 "HgN/A
4:20 am52 °FPassing clouds.25 mph82%29.80 "HgN/A
3:50 am52 °FPassing clouds.22 mph82%29.80 "HgN/A
3:20 am52 °FMostly cloudy.23 mph82%29.80 "HgN/A
2:50 am52 °FMostly cloudy.18 mph82%29.83 "HgN/A
2:20 am52 °FPassing clouds.18 mph82%29.83 "HgN/A
1:50 am52 °FPassing clouds.18 mph82%29.83 "HgN/A
1:20 am50 °FMostly cloudy.16 mph94%29.83 "HgN/A
Weather by CustomWeather, © 2017

See weather overviewHow to use our weather pages